TimePST,TemperatureF,Dew PointF,Humidity,Sea Level PressureIn,VisibilityMPH,Wind Direction,Wind SpeedMPH,Gust SpeedMPH,PrecipitationIn,Events,Conditions,WindDirDegrees,DateUTC
12:53 AM,3.9,-0.9,80,30.54,-9999.0,SW,10.4,-,N/A,,Unknown,220,2013-01-21 08:53:00
1:53 AM,1.0,-2.9,83,30.55,-9999.0,SSW,8.1,-,N/A,,Unknown,210,2013-01-21 09:53:00
2:53 AM,1.0,-4.0,79,30.53,-9999.0,SW,6.9,-,N/A,,Unknown,220,2013-01-21 10:53:00
3:53 AM,1.0,-2.9,83,30.52,-9999.0,South,3.5,-,N/A,,Unknown,190,2013-01-21 11:53:00
4:53 AM,1.0,-2.9,83,30.57,-9999.0,WSW,4.6,-,N/A,,Unknown,240,2013-01-21 12:53:00
5:53 AM,-0.9,-6.0,79,30.64,-9999.0,South,4.6,-,N/A,,Unknown,190,2013-01-21 13:53:00
6:53 AM,1.9,-2.9,80,30.64,-9999.0,SSW,8.1,-,N/A,,Unknown,200,2013-01-21 14:53:00
7:53 AM,3.9,-0.9,80,30.67,-9999.0,SW,4.6,-,N/A,,Unknown,230,2013-01-21 15:53:00
8:53 AM,14.0,5.0,67,30.63,-9999.0,SSW,5.8,-,N/A,,Unknown,210,2013-01-21 16:53:00
9:53 AM,19.0,6.1,57,30.61,-9999.0,North,3.5,-,N/A,,Unknown,10,2013-01-21 17:53:00
10:53 AM,23.0,9.0,55,30.58,-9999.0,Calm,Calm,-,N/A,,Unknown,0,2013-01-21 18:53:00
11:53 AM,30.0,10.9,45,30.53,-9999.0,Calm,Calm,-,N/A,,Unknown,0,2013-01-21 19:53:00
12:53 PM,30.0,12.9,49,30.50,-9999.0,ENE,4.6,-,N/A,,Unknown,70,2013-01-21 20:53:00
1:53 PM,34.0,12.0,40,30.46,-9999.0,Calm,Calm,-,N/A,,Unknown,0,2013-01-21 21:53:00
2:53 PM,35.1,12.0,39,30.45,-9999.0,NE,4.6,-,N/A,,Unknown,50,2013-01-21 22:53:00
3:53 PM,35.1,10.9,37,30.44,-9999.0,Calm,Calm,-,N/A,,Unknown,0,2013-01-21 23:53:00
4:53 PM,21.0,9.0,60,30.49,-9999.0,Calm,Calm,-,N/A,,Unknown,0,2013-01-22 00:53:00
5:53 PM,10.0,3.0,73,30.57,-9999.0,ESE,3.5,-,N/A,,Unknown,120,2013-01-22 01:53:00
6:53 PM,7.0,1.9,80,30.57,-9999.0,SSW,4.6,-,N/A,,Unknown,210,2013-01-22 02:53:00
7:53 PM,8.1,1.9,76,30.56,-9999.0,SSE,3.5,-,N/A,,Unknown,160,2013-01-22 03:53:00
8:53 PM,5.0,-0.0,80,30.52,-9999.0,SSW,5.8,-,N/A,,Unknown,200,2013-01-22 04:53:00
9:53 PM,1.0,-2.0,87,30.54,-9999.0,SW,4.6,-,N/A,,Unknown,230,2013-01-22 05:53:00
10:53 PM,10.9,5.0,77,30.48,-9999.0,SSW,5.8,-,N/A,,Unknown,200,2013-01-22 06:53:00
11:53 PM,7.0,1.9,80,30.47,-9999.0,WSW,6.9,-,N/A,,Unknown,240,2013-01-22 07:53:00